Weather History for Rawlins, WY

Change the Weather History Date:

Wednesday, January 2, 2013

  Actual Average Record
Temperature  
Mean Temperature 10 °F 22 °F  
Max Temperature 16 °F 31 °F 50 °F (1981)
Min Temperature 4 °F 12 °F -32 °F (1974)
Degree Days  
Heating Degree Days 55 43  
Month to date heating degree days 112 86  
Since 1 July heating degree days 2732 3540  
Cooling Degree Days 0 0  
Month to date cooling degree days 0 0  
Year to date cooling degree days 0 0  
Moisture  
Dew Point 5 °F    
Average Humidity 75    
Maximum Humidity 83    
Minimum Humidity 66    
Precipitation  
Precipitation T in 0.02 in 0.43 in (1971)
Month to date precipitation T 0.03  
Year to date precipitation T 0.03  
Sea Level Pressure  
Sea Level Pressure 30.41 in    
Wind  
Wind Speed 15 mph (WSW)    
Max Wind Speed 23 mph    
Max Gust Speed 28 mph    
Visibility 10 miles    
Events      
T = Trace of Precipitation, MM = Missing Value Source: NWS Daily Summary

Daily Weather History Graph

Daily Weather History Graph

Search for Another Location

Airport:

Trip Planner

Search our weather history database for the weather conditions in past years. The results will help you decide how hot, cold, wet, or windy it might be!

Date:

Astronomy

Jan. 02, 2013 Rise Set
Actual Time 7:36 AM MST 4:49 PM MST
Civil Twilight 7:04 AM MST 5:21 PM MST
Nautical Twilight 6:30 AM MST 5:56 PM MST
Astronomical Twilight 5:56 AM MST 6:30 PM MST
Moon 10:30 PM MST (1/2) 10:14 AM MST (1/2)
Length of Visible Light 10h 16m
Length of Day
9h 13m
Waning Gibbous, 74% of the Moon is Illuminated
Jan 2
Waning Gibbous
Jan 4
Last Quarter
Jan 11
New
Jan 18
First Quarter
Jan 26
Full

Hourly Weather History & Observations

Time (MST) Temp. Windchill Dew Point Humidity Pressure Visibility Wind Dir Wind Speed Gust Speed Precip Events Conditions
12:53 AM 10.9 °F -8.3 °F 5.0 °F 77% 30.37 in 10.0 mi WSW 21.9 mph 26.5 mph 0.00 in   Clear
1:53 AM 10.0 °F -7.1 °F 5.0 °F 80% 30.38 in 10.0 mi WSW 16.1 mph - 0.00 in   Partly Cloudy
2:53 AM 10.0 °F 0.4 °F 5.0 °F 80% 30.37 in 10.0 mi West 5.8 mph - N/A   Scattered Clouds
3:53 AM 12.9 °F -0.2 °F 7.0 °F 77% 30.35 in 10.0 mi WSW 10.4 mph - N/A   Overcast
5:53 AM 12.0 °F -2.0 °F 6.1 °F 77% 30.37 in 10.0 mi WSW 11.5 mph - N/A   Overcast
6:53 AM 14.0 °F 0.5 °F 7.0 °F 74% 30.38 in 10.0 mi West 11.5 mph - N/A   Overcast
7:53 AM 12.9 °F -2.8 °F 7.0 °F 77% 30.39 in 10.0 mi WSW 15.0 mph - N/A   Overcast
8:53 AM 10.9 °F -5.4 °F 6.1 °F 81% 30.39 in 10.0 mi WSW 15.0 mph - N/A   Clear
9:53 AM 14.0 °F -2.5 °F 7.0 °F 74% 30.39 in 10.0 mi WSW 17.3 mph - N/A   Clear
10:53 AM 16.0 °F 1.7 °F 8.1 °F 71% 30.41 in 10.0 mi WSW 13.8 mph - N/A   Mostly Cloudy
11:53 AM 15.1 °F -1.6 °F 7.0 °F 70% 30.39 in 10.0 mi WSW 18.4 mph - N/A   Partly Cloudy
12:53 PM 15.1 °F -2.9 °F 7.0 °F 70% 30.38 in 10.0 mi WSW 21.9 mph 26.5 mph N/A   Clear
1:53 PM 15.1 °F -2.5 °F 8.1 °F 74% 30.36 in 10.0 mi WSW 20.7 mph 24.2 mph N/A   Clear
2:53 PM 15.1 °F -2.0 °F 7.0 °F 70% 30.38 in 10.0 mi WSW 19.6 mph - N/A   Clear
3:53 PM 12.9 °F -4.9 °F 6.1 °F 74% 30.39 in 10.0 mi WSW 19.6 mph - N/A   Clear
4:53 PM 10.0 °F -8.6 °F 3.0 °F 73% 30.42 in 10.0 mi WSW 19.6 mph - N/A   Clear
5:53 PM 10.0 °F -8.1 °F 3.0 °F 73% 30.43 in 10.0 mi WSW 18.4 mph - N/A   Clear
6:53 PM 10.9 °F -2.6 °F 3.0 °F 70% 30.43 in 10.0 mi West 10.4 mph - N/A   Clear
7:53 PM 10.0 °F -3.7 °F 1.9 °F 70% 30.45 in 10.0 mi WSW 10.4 mph - N/A   Clear
8:53 PM 8.1 °F -9.0 °F 1.9 °F 76% 30.47 in 10.0 mi WSW 15.0 mph - N/A   Clear
9:53 PM 8.1 °F -8.4 °F 1.0 °F 73% 30.48 in 10.0 mi SW 13.8 mph - N/A   Clear
10:53 PM 8.1 °F -7.0 °F 1.0 °F 73% 30.50 in 10.0 mi WSW 11.5 mph - N/A   Clear
11:53 PM 5.0 °F -10.8 °F -0.9 °F 76% 30.51 in 10.0 mi WSW 11.5 mph - N/A   Clear